Home > Weather > Ndjamena > Past weeks

Flag for Chad Weather for the Past 2 Weeks in Ndjamena, Chad

Now
108 °F

Haze.


Feels Like: 105 °F
Forecast: 85 / 109 °F
Wind: 12 mph from Southeast

Location: Ndjamena

Current Time: May 6, 2016 at 2:13:13 PM

Latest Report: May 6, 2016 at 1:00 PM


Visibility: 2 mi

Pressure: 29.74 "Hg

Humidity: 15%

Dew Point: 50 °F

Location of NdjamenaLocation

Historic Weather in Ndjamena — Graph

°F

Ndjamena Temperature Yesterday

Maximum temperature yesterday: 111 °F (at 2:00 PM)
Minimum temperature yesterday: 82 °F (at 3:00 AM)
Average temperature yesterday: 96 °F

High & Low Weather Summary for the Past Weeks

 TemperatureHumidityPressure
High111 °F (Apr 23, 2:00 PM)70% (May 4, 6:00 AM)29.89 "Hg (May 4, 6:00 AM)
Low72 °F (Apr 22, 4:00 AM)2% (Apr 22, 1:00 PM)29.59 "Hg (Apr 24, 5:00 PM)
Average95 °F21%29.73 "Hg
* Reported Apr 21 1:00 PM — May 6 1:00 PM, Ndjamena, Weather by CustomWeather, © 2016

Note: Actual official high and low records may vary slightly from our data, if they occured in-between our weather recording intervals... More about our weather records

Advertising

Ndjamena Weather History for the Previous 24 Hours

Scroll right to see more
 ConditionsComfort  
Time TempWeatherWind HumidityBarometerVisibility
1:00 PM
Fri, May 6
108 °FHaze.12 mph15%29.74 "Hg2 mi
12:00 PM106 °FHaze.5 mph17%29.77 "Hg2 mi
11:00 AM104 °FHaze.7 mph17%29.80 "Hg2 mi
10:00 AM99 °FHaze.5 mph21%29.80 "Hg2 mi
9:00 AM97 °FHaze.5 mph20%29.80 "Hg2 mi
8:00 AM93 °FHaze.9 mph39%29.77 "Hg1 mi
7:00 AM88 °FHaze.No wind38%29.74 "Hg1 mi
6:00 AM82 °FHaze.No wind42%29.74 "Hg1 mi
5:00 AM86 °FHaze.9 mph40%29.71 "Hg3 mi
4:00 AM82 °FClear.No wind42%29.71 "Hg5 mi
3:00 AM84 °FClear.No wind33%29.77 "Hg4 mi
2:00 AM84 °FClear.No wind33%29.77 "Hg4 mi
1:00 AM82 °FClear.5 mph35%29.74 "Hg4 mi
12:00 AM88 °FClear.5 mph24%29.77 "Hg4 mi
11:00 PM
Thu, May 5
90 °FClear.5 mph24%29.77 "Hg4 mi
10:00 PM91 °FClear.5 mph17%29.77 "Hg4 mi
9:00 PM95 °FClear.5 mph16%29.71 "Hg4 mi
8:00 PM97 °FHaze.No wind17%29.71 "Hg3 mi
7:00 PM100 °FHaze.5 mph5%29.71 "Hg3 mi
6:00 PM106 °FHaze.7 mph8%29.71 "Hg3 mi
5:00 PM109 °FClear.9 mph8%29.71 "Hg4 mi
4:00 PM109 °FHaze.12 mph5%29.71 "Hg3 mi
2:00 PM111 °FHaze.12 mph5%29.74 "Hg3 mi
Weather by CustomWeather, © 2016

See weather overviewHow to use our weather pages